Flag for U.S.A. Weather past 2 weeks in Garden Grove, California, U.S.A.

Now
58 °F

Clear.


Feels Like: 58 °F
Forecast: 56 / 86 °F
Wind: No wind

Location: Fullerton Municipal Airport

Current Time: Apr 28, 2015 at 5:13:05 AM

Latest Report: Apr 28, 2015 at 4:53 AM


Visibility: 10 mi

Pressure: 29.92 "Hg

Humidity: 47%

Dew point: 38 °F

Location of Garden GroveLocation

Historic Weather in Garden Grove — Graph

°F

Garden Grove temperature yesterday

Maximum temperature yesterday: 89 °F (at 2:53 PM)
Minimum temperature yesterday: 55 °F (at 5:53 AM)
Average temperature yesterday: 72 °F

Past Weeks' High & Low Weather Summary

 TemperatureHumidityPressure
High89 °F (Apr 27, 2:53 PM)83% (Apr 26, 2:53 AM)30.09 "Hg (Apr 26, 2:53 AM)
Low53 °F (Apr 17, 5:53 AM)5% (Apr 16, 11:53 AM)29.82 "Hg (Apr 20, 5:53 PM)
Average66 °F52%29.94 "Hg
* Reported Apr 13 3:53 AM — Apr 28 3:53 AM, Garden Grove, Weather by CustomWeather, © 2015

Note: Actual official high and low records may vary slightly from our data, if they occured in-between our weather recording intervals... More about our weather records

Advertising

Garden Grove weather history for previous 24 hours

 ConditionsComfort  
Time TempWeatherWind HumidityBarometerVisibility
3:53 AM
Tue, Apr 28
60 °FClear.3 mph44%29.93 "Hg10 mi
2:53 AM61 °FClear.No wind39%29.93 "Hg10 mi
1:53 AM63 °FClear.6 mph35%29.94 "Hg10 mi
12:53 AM64 °FClear.5 mph35%29.96 "Hg10 mi
11:53 PM
Mon, Apr 27
66 °FClear.3 mph34%29.95 "Hg10 mi
10:53 PM69 °FClear.No wind31%29.94 "Hg10 mi
9:53 PM70 °FClear.3 mph27%29.94 "Hg10 mi
8:53 PM73 °FClear.No wind22%29.93 "Hg10 mi
7:53 PM76 °FSunny.7 mph19%29.90 "Hg10 mi
6:53 PM79 °FSunny.8 mph15%29.88 "Hg10 mi
5:53 PM81 °FSunny.6 mph15%29.87 "Hg10 mi
4:53 PM84 °FSunny.9 mph14%29.85 "Hg10 mi
3:53 PM88 °FSunny.13 mph15%29.85 "Hg10 mi
2:53 PM89 °FSunny.8 mph10%29.87 "Hg10 mi
1:53 PM88 °FSunny.5 mph10%29.88 "Hg10 mi
12:53 PM86 °FSunny.No wind12%29.89 "Hg10 mi
11:53 AM86 °FSunny.7 mph12%29.91 "Hg10 mi
10:53 AM83 °FSunny.No wind15%29.92 "Hg10 mi
9:53 AM77 °FSunny.No wind29%29.94 "Hg10 mi
8:53 AM69 °FSunny.3 mph47%29.94 "Hg10 mi
7:53 AM63 °FSunny.No wind60%29.93 "Hg10 mi
6:53 AM57 °FClear.No wind74%29.91 "Hg10 mi
5:53 AM55 °FClear.6 mph77%29.90 "Hg10 mi
Weather by CustomWeather, © 2015

See weather overviewHow to use our weather pages